Content
SEND FEEDBACK

Daily
Averages
Monthly
Summary
Germany

HAAR, GERMANY


Home > Europe > Germany
Elevation: 1736 feet     Latitude: 48 01N     Longitude: 011 42E

WEATHER
 
SELECT A DAY
Number of Records: 296,494;   Date Range: 7/1/96 - 10/24/14
 
SHARE

PRINT THIS DATA

[ ← Previous Day ]
WEATHER ALMANAC - JANUARY 31, 2013
[ Next Day → ]
[ °C ]   °F
Weather ElementAverageHighLow
Temperature45.1 °F50 °F (1:20 pm)41 °F (7:20 am)
Dewpoint34.3 °F39.2 °F (11:20 pm)28.4 °F (5:20 pm)
Humidity67 %93 % (11:20 pm)50 % (4:50 pm)
Barometer30.05 in30.15 in (10:20 am)29.95 in (4:20 pm)
Wind Speed21.5 mph32.2 mph (5:20 pm)
Wind Gust49.5 mph (5:20 pm)
Weather ElementAverage
Visibility6.2 mi
Wind DirectionWSW (255.5 °)

Weather ElementTotal
Precipitation---
Heating Degree Days19.5 (Base 65)
Averaged from 47 records on January 31, 2013
WEATHER CONDITIONS BREAKOUT
WIND DIRECTION BREAKOUT
WEATHER BY HOUR - JANUARY 31, 2013
[ °C ]   °F
Local TimeTemperatureDewpointHumidityBarometerVisibilityWind DirectionWind SpeedGust SpeedPrecipitationEventsConditions
12:50 AM42.8 °F37.4 °F81 %30.09 inWSW (250°)21.9 mphClear
1:20 AM44.6 °F37.4 °F76 %30.09 inWSW (250°)16.1 mphClear
1:50 AM44.6 °F37.4 °F76 %30.12 inWSW (250°)16.1 mphClear
2:20 AM42.8 °F35.6 °F76 %30.12 inWSW (250°)25.3 mphClear
2:50 AM42.8 °F37.4 °F81 %30.12 inWSW (250°)20.7 mphClear
3:20 AM42.8 °F35.6 °F76 %30.09 in6.2 miWest (260°)20.7 mphScattered Clouds
3:50 AM42.8 °F37.4 °F81 %30.12 in6.2 miWSW (250°)16.1 mphPartly Cloudy
4:20 AM42.8 °F37.4 °F81 %30.12 in6.2 miWest (260°)18.4 mphPartly Cloudy
4:50 AM42.8 °F37.4 °F81 %30.12 in6.2 miWest (260°)19.6 mphPartly Cloudy
5:20 AM42.8 °F35.6 °F76 %30.12 in6.2 miWest (260°)21.9 mphPartly Cloudy
5:50 AM42.8 °F35.6 °F76 %30.12 in6.2 miWest (260°)19.6 mph31.1 mphPartly Cloudy
6:20 AM42.8 °F35.6 °F76 %30.12 in6.2 miWest (260°)21.9 mphScattered Clouds
6:50 AM42.8 °F33.8 °F70 %30.12 in6.2 miWest (260°)23.0 mph36.8 mphScattered Clouds
7:20 AM41.0 °F33.8 °F76 %30.12 in6.2 miWest (260°)19.6 mph31.1 mphScattered Clouds
7:50 AM41.0 °F32.0 °F70 %30.12 in6.2 miWest (260°)21.9 mphPartly Cloudy
8:20 AM41.0 °F32.0 °F70 %30.12 inWSW (250°)17.3 mph28.8 mphClear
8:50 AM42.8 °F33.8 °F70 %30.12 inWSW (250°)19.6 mphClear
9:20 AM42.8 °F33.8 °F70 %30.12 inWSW (250°)25.3 mphClear
9:50 AM42.8 °F32.0 °F66 %30.12 in6.2 miWSW (250°)25.3 mphPartly Cloudy
10:20 AM44.6 °F32.0 °F61 %30.15 in6.2 miWest (260°)24.2 mph35.7 mphPartly Cloudy
10:50 AM44.6 °F33.8 °F66 %30.15 in6.2 miWest (260°)19.6 mph33.4 mphPartly Cloudy
11:20 AM46.4 °F33.8 °F62 %30.15 in6.2 miWest (260°)25.3 mphMostly Cloudy
11:50 AM46.4 °F33.8 °F62 %30.12 in6.2 miWest (260°)24.2 mph35.7 mphMostly Cloudy
12:20 PM48.2 °F35.6 °F62 %30.09 in6.2 miWest (260°)23.0 mph34.5 mphScattered Clouds
12:50 PM48.2 °F33.8 °F58 %30.06 in6.2 miWSW (250°)18.4 mph29.9 mphScattered Clouds
1:20 PM50.0 °F35.6 °F58 %30.04 in6.2 miWSW (250°)19.6 mph33.4 mphScattered Clouds
1:50 PM48.2 °F33.8 °F58 %30.01 in6.2 miWSW (250°)24.2 mphMostly Cloudy
2:20 PM48.2 °F33.8 °F58 %30.01 in6.2 miWSW (250°)18.4 mph31.1 mphMostly Cloudy
2:50 PM48.2 °F33.8 °F58 %30.01 inWest (260°)19.6 mphClear
3:20 PM46.4 °F33.8 °F62 %30.01 inWSW (240°)18.4 mphClear
3:50 PM48.2 °F33.8 °F58 %29.98 inWSW (240°)21.9 mphClear
4:20 PM48.2 °F32.0 °F54 %29.95 inWSW (240°)16.1 mph31.1 mphClear
4:50 PM48.2 °F30.2 °F50 %29.95 inWSW (250°)18.4 mph34.5 mphClear
5:20 PM46.4 °F28.4 °F50 %29.95 inWSW (250°)32.2 mph49.5 mphClear
5:50 PM48.2 °F30.2 °F50 %29.95 inWSW (250°)20.7 mph39.1 mphClear
6:20 PM48.2 °F30.2 °F50 %29.95 inWSW (250°)20.7 mph33.4 mphClear
6:50 PM48.2 °F30.2 °F50 %29.98 in6.2 miWest (260°)28.8 mphMostly Cloudy
7:20 PM46.4 °F30.2 °F53 %29.95 inWest (260°)27.6 mph40.3 mphClear
7:50 PM48.2 °F30.2 °F50 %29.95 inWest (270°)20.7 mph33.4 mphClear
8:20 PM48.2 °F32.0 °F54 %29.98 inWest (260°)26.5 mph43.7 mphClear
8:50 PM44.6 °F35.6 °F71 %29.98 in6.2 miWest (270°)24.2 mph48.3 mphRainLight Rain
9:20 PM46.4 °F35.6 °F66 %29.98 in6.2 miWest (260°)20.7 mph32.2 mphMostly Cloudy
9:50 PM46.4 °F35.6 °F66 %29.98 in6.2 miWest (260°)17.3 mph28.8 mphMostly Cloudy
10:20 PM44.6 °F35.6 °F71 %29.98 in6.2 miWest (260°)25.3 mph41.4 mphRainLight Rain
10:50 PM44.6 °F37.4 °F76 %29.98 in6.2 miWest (260°)23.0 mph34.5 mphRainLight Rain
11:20 PM41.0 °F39.2 °F93 %30.01 in6.2 miWest (260°)23.0 mph36.8 mphRainRain
11:50 PM41.0 °F39.2 °F93 %29.98 in6.2 miWest (270°)18.4 mphRainLight Rain
Hourly data recorded from EDDM, located miles away from Haar, Germany







STORIES FROM OUR PARTNERS